Location: St. Louis
(38.6270°N, 90.1994°W)
Time: 05:57:43
(UTC-06:00)

Vanguard 2 Rocket - Pass Details

Date: 08 December 2021
Orbit: 554 x 3325 km, 32.9° (Epoch: 21 January)

Event Time Altitude Azimuth Distance (km) Brightness Sun altitude
Rises 18:24:11 0° 259° (W) 3,093 11.3 -19.9°
Reaches altitude 10° 18:26:11 10° 254° (WSW) 2,350 10.2 -20.2°
Maximum altitude 18:31:31 55° 177° (S) 1,272 7.6 -21.2°
Enters shadow 18:35:57 27° 113° (ESE) 2,344 8.5 -22.1°
